Time,TemperatureF,DewpointF,PressureIn,WindDirection,WindDirectionDegrees,WindSpeedMPH,WindSpeedGustMPH,Humidity,HourlyPrecipIn,Conditions,Clouds,dailyrainin,SoftwareType,DateUTC
2013-10-24 00:01:00,34.8,26.3,30.18,NNW,338,0.0,0.0,71,0.00,,,0.00,WUHU216HW,2013-10-24 04:01:00,
2013-10-24 00:06:00,34.5,26.0,30.19,NNW,338,0.0,0.0,71,0.00,,,0.00,WUHU216HW,2013-10-24 04:06:00,
2013-10-24 00:11:00,34.3,26.1,30.19,NNW,338,0.0,0.0,72,0.00,,,0.00,WUHU216HW,2013-10-24 04:11:00,
2013-10-24 00:16:00,33.9,25.8,30.19,NNW,338,0.0,0.0,72,0.00,,,0.00,WUHU216HW,2013-10-24 04:16:00,
2013-10-24 00:21:00,33.6,25.7,30.19,NNW,338,0.0,0.0,73,0.00,,,0.00,WUHU216HW,2013-10-24 04:21:00,
2013-10-24 00:26:00,33.2,25.4,30.19,NNW,338,0.0,0.0,73,0.00,,,0.00,WUHU216HW,2013-10-24 04:26:00,
2013-10-24 00:31:00,33.0,25.3,30.20,NNW,338,0.0,0.0,73,0.00,,,0.00,WUHU216HW,2013-10-24 04:31:00,
2013-10-24 00:36:00,33.0,25.6,30.20,NNW,338,0.0,0.0,74,0.00,,,0.00,WUHU216HW,2013-10-24 04:36:00,
2013-10-24 00:41:00,33.0,25.6,30.20,NNW,338,0.0,0.0,74,0.00,,,0.00,WUHU216HW,2013-10-24 04:41:00,
2013-10-24 00:46:00,33.0,25.6,30.20,NNW,338,0.0,0.0,74,0.00,,,0.00,WUHU216HW,2013-10-24 04:46:00,
2013-10-24 00:51:00,33.0,25.9,30.20,NNW,338,0.0,0.0,75,0.00,,,0.00,WUHU216HW,2013-10-24 04:51:00,
2013-10-24 00:56:00,33.0,25.9,30.20,NNW,338,0.0,0.0,75,0.00,,,0.00,WUHU216HW,2013-10-24 04:56:00,
2013-10-24 01:01:00,33.0,26.2,30.20,NNW,338,0.0,0.0,76,0.00,,,0.00,WUHU216HW,2013-10-24 05:01:00,
2013-10-24 01:06:00,33.0,26.2,30.20,NNW,338,0.0,0.0,76,0.00,,,0.00,WUHU216HW,2013-10-24 05:06:00,
2013-10-24 01:11:00,33.0,26.2,30.20,NNW,338,0.0,0.0,76,0.00,,,0.00,WUHU216HW,2013-10-24 05:11:00,
2013-10-24 01:16:00,33.0,26.2,30.19,NNW,338,0.0,0.0,76,0.00,,,0.00,WUHU216HW,2013-10-24 05:16:00,
2013-10-24 01:21:00,32.9,26.1,30.20,NNW,338,0.0,0.0,76,0.00,,,0.00,WUHU216HW,2013-10-24 05:21:00,
2013-10-24 01:26:00,32.7,25.9,30.21,NNW,338,0.0,0.0,76,0.00,,,0.00,WUHU216HW,2013-10-24 05:26:00,
2013-10-24 01:31:00,32.7,25.9,30.21,NNW,338,0.0,0.0,76,0.00,,,0.00,WUHU216HW,2013-10-24 05:31:00,
2013-10-24 01:36:00,32.9,26.4,30.21,NNW,338,0.0,0.0,77,0.00,,,0.00,WUHU216HW,2013-10-24 05:36:00,
2013-10-24 01:41:00,32.7,26.2,30.21,NNW,338,0.0,0.0,77,0.00,,,0.00,WUHU216HW,2013-10-24 05:41:00,
2013-10-24 01:46:00,32.7,26.6,30.21,NNW,338,0.0,0.0,78,0.00,,,0.00,WUHU216HW,2013-10-24 05:46:00,
2013-10-24 01:51:00,32.5,26.2,30.21,NNW,338,0.0,0.0,77,0.00,,,0.00,WUHU216HW,2013-10-24 05:51:00,
2013-10-24 01:56:00,32.5,26.1,30.20,NNW,338,0.0,0.0,77,0.00,,,0.00,WUHU216HW,2013-10-24 05:56:00,
2013-10-24 02:01:00,32.3,25.9,30.20,NNW,338,0.0,0.0,77,0.00,,,0.00,WUHU216HW,2013-10-24 06:01:00,
2013-10-24 02:06:00,32.3,26.2,30.19,NNW,338,0.0,0.0,78,0.00,,,0.00,WUHU216HW,2013-10-24 06:06:00,
2013-10-24 02:11:00,32.1,26.1,30.20,NNW,338,0.0,0.0,78,0.00,,,0.00,WUHU216HW,2013-10-24 06:11:00,
2013-10-24 02:16:00,32.1,26.4,30.20,NNW,338,0.0,0.0,79,0.00,,,0.00,WUHU216HW,2013-10-24 06:16:00,
2013-10-24 02:21:00,32.1,26.4,30.20,NNW,338,0.0,0.0,79,0.00,,,0.00,WUHU216HW,2013-10-24 06:21:00,
2013-10-24 02:27:00,32.0,26.2,30.20,NNW,338,0.0,0.0,79,0.00,,,0.00,WUHU216HW,2013-10-24 06:27:00,
2013-10-24 02:32:00,31.8,26.0,30.21,NNW,338,0.0,0.0,79,0.00,,,0.00,WUHU216HW,2013-10-24 06:32:00,
2013-10-24 02:37:00,31.6,25.9,30.21,NNW,338,0.0,0.0,79,0.00,,,0.00,WUHU216HW,2013-10-24 06:37:00,
2013-10-24 02:42:00,31.6,26.2,30.21,NNW,338,0.0,0.0,80,0.00,,,0.00,WUHU216HW,2013-10-24 06:42:00,
2013-10-24 02:47:00,31.2,25.8,30.21,NNW,338,0.0,0.0,80,0.00,,,0.00,WUHU216HW,2013-10-24 06:47:00,
2013-10-24 02:52:00,31.2,25.8,30.21,NNW,338,0.0,0.0,80,0.00,,,0.00,WUHU216HW,2013-10-24 06:52:00,
2013-10-24 02:57:00,30.9,25.5,30.21,NNW,338,0.0,0.0,80,0.00,,,0.00,WUHU216HW,2013-10-24 06:57:00,
2013-10-24 03:02:00,30.9,25.5,30.21,NNW,338,0.0,0.0,80,0.00,,,0.00,WUHU216HW,2013-10-24 07:02:00,
2013-10-24 03:07:00,30.7,25.3,30.21,NNW,338,0.0,0.0,80,0.00,,,0.00,WUHU216HW,2013-10-24 07:07:00,
2013-10-24 03:12:00,30.7,25.3,30.21,NNW,338,0.0,0.0,80,0.00,,,0.00,WUHU216HW,2013-10-24 07:12:00,
2013-10-24 03:17:00,30.7,25.3,30.21,NNW,338,0.0,0.0,80,0.00,,,0.00,WUHU216HW,2013-10-24 07:17:00,
2013-10-24 03:22:00,30.5,25.1,30.21,NNW,338,0.0,0.0,80,0.00,,,0.00,WUHU216HW,2013-10-24 07:22:00,
2013-10-24 03:27:00,30.2,24.8,30.21,NNW,338,0.0,0.0,80,0.00,,,0.00,WUHU216HW,2013-10-24 07:27:00,
2013-10-24 03:32:00,30.0,24.6,30.22,NNW,338,0.0,0.0,80,0.00,,,0.00,WUHU216HW,2013-10-24 07:32:00,
2013-10-24 03:37:00,30.0,24.6,30.22,NNW,338,0.0,0.0,80,0.00,,,0.00,WUHU216HW,2013-10-24 07:37:00,
2013-10-24 03:42:00,29.8,24.4,30.22,NNW,338,0.0,0.0,80,0.00,,,0.00,WUHU216HW,2013-10-24 07:42:00,
2013-10-24 03:47:00,29.8,24.7,30.21,NNW,338,0.0,0.0,81,0.00,,,0.00,WUHU216HW,2013-10-24 07:47:00,
2013-10-24 03:52:00,29.6,24.5,30.22,NNW,338,0.0,0.0,81,0.00,,,0.00,WUHU216HW,2013-10-24 07:52:00,
2013-10-24 03:57:00,29.6,24.5,30.22,NNW,338,0.0,0.0,81,0.00,,,0.00,WUHU216HW,2013-10-24 07:57:00,
2013-10-24 04:02:00,29.4,24.6,30.21,NNW,338,0.0,0.0,82,0.00,,,0.00,WUHU216HW,2013-10-24 08:02:00,
2013-10-24 04:07:00,29.4,24.6,30.22,NNW,338,0.0,0.0,82,0.00,,,0.00,WUHU216HW,2013-10-24 08:07:00,
2013-10-24 04:12:00,29.3,24.4,30.22,NNW,338,0.0,0.0,82,0.00,,,0.00,WUHU216HW,2013-10-24 08:12:00,
2013-10-24 04:17:00,29.1,24.2,30.22,NNW,338,0.0,0.0,82,0.00,,,0.00,WUHU216HW,2013-10-24 08:17:00,
2013-10-24 04:22:00,29.1,24.2,30.22,NNW,338,0.0,0.0,82,0.00,,,0.00,WUHU216HW,2013-10-24 08:22:00,
2013-10-24 04:27:00,29.1,24.5,30.22,NNW,338,0.0,0.0,83,0.00,,,0.00,WUHU216HW,2013-10-24 08:27:00,
2013-10-24 04:32:00,28.9,24.4,30.21,NNW,338,0.0,0.0,83,0.00,,,0.00,WUHU216HW,2013-10-24 08:32:00,
2013-10-24 04:37:00,28.7,24.2,30.22,NNW,338,0.0,0.0,83,0.00,,,0.00,WUHU216HW,2013-10-24 08:37:00,
2013-10-24 04:42:00,28.7,24.2,30.22,NNW,338,0.0,0.0,83,0.00,,,0.00,WUHU216HW,2013-10-24 08:42:00,
2013-10-24 04:47:00,28.5,23.7,30.22,NNW,338,0.0,0.0,82,0.00,,,0.00,WUHU216HW,2013-10-24 08:47:00,
2013-10-24 04:52:00,28.5,24.0,30.22,NNW,338,0.0,0.0,83,0.00,,,0.00,WUHU216HW,2013-10-24 08:52:00,
2013-10-24 04:57:00,28.2,23.6,30.21,NNW,338,0.0,0.0,83,0.00,,,0.00,WUHU216HW,2013-10-24 08:57:00,
2013-10-24 05:02:00,28.2,23.6,30.21,NNW,338,0.0,0.0,83,0.00,,,0.00,WUHU216HW,2013-10-24 09:02:00,
2013-10-24 05:07:00,28.2,23.6,30.21,NNW,338,0.0,0.0,83,0.00,,,0.00,WUHU216HW,2013-10-24 09:07:00,
2013-10-24 05:12:00,28.2,23.6,30.22,NNW,338,0.0,0.0,83,0.00,,,0.00,WUHU216HW,2013-10-24 09:12:00,
2013-10-24 05:17:00,28.0,23.5,30.22,NNW,338,0.0,0.0,83,0.00,,,0.00,WUHU216HW,2013-10-24 09:17:00,
2013-10-24 05:22:00,27.8,23.3,30.22,NNW,338,0.0,0.0,83,0.00,,,0.00,WUHU216HW,2013-10-24 09:22:00,
2013-10-24 05:27:00,27.6,23.1,30.22,NNW,338,0.0,0.0,83,0.00,,,0.00,WUHU216HW,2013-10-24 09:27:00,
2013-10-24 05:32:00,27.6,23.1,30.23,NNW,338,0.0,0.0,83,0.00,,,0.00,WUHU216HW,2013-10-24 09:32:00,
2013-10-24 05:37:00,27.6,23.1,30.22,NNW,338,0.0,0.0,83,0.00,,,0.00,WUHU216HW,2013-10-24 09:37:00,
2013-10-24 05:42:00,27.6,23.4,30.23,NNW,338,0.0,0.0,84,0.00,,,0.00,WUHU216HW,2013-10-24 09:42:00,
2013-10-24 05:47:00,27.6,23.4,30.23,NNW,338,0.0,0.0,84,0.00,,,0.00,WUHU216HW,2013-10-24 09:47:00,
2013-10-24 05:52:00,27.6,23.4,30.24,NNW,338,0.0,0.0,84,0.00,,,0.00,WUHU216HW,2013-10-24 09:52:00,
2013-10-24 05:57:00,27.6,23.4,30.23,NNW,338,0.0,0.0,84,0.00,,,0.00,WUHU216HW,2013-10-24 09:57:00,
2013-10-24 06:02:00,27.6,23.4,30.23,NNW,338,0.0,0.0,84,0.00,,,0.00,WUHU216HW,2013-10-24 10:02:00,
2013-10-24 06:07:00,27.6,23.4,30.23,NNW,338,0.0,0.0,84,0.00,,,0.00,WUHU216HW,2013-10-24 10:07:00,
2013-10-24 06:12:00,27.6,23.4,30.24,NNW,338,0.0,0.0,84,0.00,,,0.00,WUHU216HW,2013-10-24 10:12:00,
2013-10-24 06:17:00,27.6,23.4,30.24,NNW,338,0.0,0.0,84,0.00,,,0.00,WUHU216HW,2013-10-24 10:17:00,
2013-10-24 06:22:00,27.6,23.4,30.24,NNW,338,0.0,0.0,84,0.00,,,0.00,WUHU216HW,2013-10-24 10:22:00,
2013-10-24 06:27:00,27.6,23.4,30.24,NNW,338,0.0,0.0,84,0.00,,,0.00,WUHU216HW,2013-10-24 10:27:00,
2013-10-24 06:32:00,27.6,23.4,30.24,NNW,338,0.0,0.0,84,0.00,,,0.00,WUHU216HW,2013-10-24 10:32:00,
2013-10-24 06:37:00,27.5,23.2,30.24,NNW,338,0.0,0.0,84,0.00,,,0.00,WUHU216HW,2013-10-24 10:37:00,
2013-10-24 06:42:00,27.5,23.2,30.24,NNW,338,0.0,0.0,84,0.00,,,0.00,WUHU216HW,2013-10-24 10:42:00,
2013-10-24 06:47:00,27.3,23.0,30.24,NNW,338,0.0,0.0,84,0.00,,,0.00,WUHU216HW,2013-10-24 10:47:00,
2013-10-24 06:52:00,27.3,23.0,30.24,NNW,338,0.0,0.0,84,0.00,,,0.00,WUHU216HW,2013-10-24 10:52:00,
2013-10-24 06:57:00,27.3,23.0,30.24,NNW,338,0.0,0.0,84,0.00,,,0.00,WUHU216HW,2013-10-24 10:57:00,
2013-10-24 07:02:00,27.3,23.3,30.24,NNW,338,0.0,0.0,85,0.00,,,0.00,WUHU216HW,2013-10-24 11:02:00,
2013-10-24 07:07:00,27.5,23.5,30.24,NNW,338,0.0,0.0,85,0.00,,,0.00,WUHU216HW,2013-10-24 11:07:00,
2013-10-24 07:12:00,27.6,23.7,30.24,NNW,338,0.0,0.0,85,0.00,,,0.00,WUHU216HW,2013-10-24 11:12:00,
2013-10-24 07:17:00,28.0,24.0,30.24,NNW,338,0.0,0.0,85,0.00,,,0.00,WUHU216HW,2013-10-24 11:17:00,
2013-10-24 07:22:00,28.2,24.5,30.24,NNW,338,0.0,0.0,86,0.00,,,0.00,WUHU216HW,2013-10-24 11:22:00,
2013-10-24 07:27:00,28.5,24.9,30.24,NNW,338,0.0,0.0,86,0.00,,,0.00,WUHU216HW,2013-10-24 11:27:00,
2013-10-24 07:32:00,28.9,25.2,30.24,NNW,338,0.0,0.0,86,0.00,,,0.00,WUHU216HW,2013-10-24 11:32:00,
2013-10-24 07:37:00,29.1,25.4,30.24,NNW,338,0.0,0.0,86,0.00,,,0.00,WUHU216HW,2013-10-24 11:37:00,
2013-10-24 07:42:00,29.3,25.6,30.24,NNW,338,0.0,0.0,86,0.00,,,0.00,WUHU216HW,2013-10-24 11:42:00,
2013-10-24 07:47:00,29.6,25.9,30.24,NNW,338,0.0,0.0,86,0.00,,,0.00,WUHU216HW,2013-10-24 11:47:00,
2013-10-24 07:52:00,30.0,26.3,30.24,NNW,338,0.0,0.0,86,0.00,,,0.00,WUHU216HW,2013-10-24 11:52:00,
2013-10-24 07:57:00,30.0,26.3,30.25,NNW,338,0.0,0.0,86,0.00,,,0.00,WUHU216HW,2013-10-24 11:57:00,
2013-10-24 08:02:00,30.3,26.7,30.25,NNW,338,0.0,0.0,86,0.00,,,0.00,WUHU216HW,2013-10-24 12:02:00,
2013-10-24 08:07:00,30.7,27.0,30.25,NNW,338,0.0,0.0,86,0.00,,,0.00,WUHU216HW,2013-10-24 12:07:00,
2013-10-24 08:12:00,30.7,27.3,30.25,NNW,338,0.0,0.0,87,0.00,,,0.00,WUHU216HW,2013-10-24 12:12:00,
2013-10-24 08:17:00,31.1,27.7,30.25,NNW,338,0.0,0.0,87,0.00,,,0.00,WUHU216HW,2013-10-24 12:17:00,
2013-10-24 08:22:00,31.2,27.8,30.25,NNW,338,0.0,0.0,87,0.00,,,0.00,WUHU216HW,2013-10-24 12:22:00,
2013-10-24 08:27:00,31.6,28.2,30.25,NNW,338,0.0,0.0,87,0.00,,,0.00,WUHU216HW,2013-10-24 12:27:00,
2013-10-24 08:33:00,31.8,28.4,30.25,NNW,338,0.0,0.0,87,0.00,,,0.00,WUHU216HW,2013-10-24 12:33:00,
2013-10-24 08:38:00,32.1,28.7,30.25,NNW,338,0.0,0.0,87,0.00,,,0.00,WUHU216HW,2013-10-24 12:38:00,
2013-10-24 08:43:00,32.5,29.1,30.25,NNW,338,0.0,0.0,87,0.00,,,0.00,WUHU216HW,2013-10-24 12:43:00,
2013-10-24 08:48:00,32.9,29.4,30.25,NNW,338,0.0,0.0,87,0.00,,,0.00,WUHU216HW,2013-10-24 12:48:00,
2013-10-24 08:53:00,33.4,29.9,30.26,NNW,338,0.0,0.0,87,0.00,,,0.00,WUHU216HW,2013-10-24 12:53:00,
2013-10-24 08:58:00,33.6,30.0,30.26,NNW,338,0.0,0.0,87,0.00,,,0.00,WUHU216HW,2013-10-24 12:58:00,
2013-10-24 09:03:00,33.9,30.7,30.26,NNW,338,0.0,0.0,87,0.00,,,0.00,WUHU216HW,2013-10-24 13:03:00,
2013-10-24 09:08:00,34.3,30.7,30.26,NNW,338,0.0,0.0,87,0.00,,,0.00,WUHU216HW,2013-10-24 13:08:00,
2013-10-24 09:13:00,34.7,31.1,30.26,NNW,338,0.0,0.0,87,0.00,,,0.00,WUHU216HW,2013-10-24 13:13:00,
2013-10-24 09:18:00,35.2,31.3,30.26,NNW,338,0.0,0.0,86,0.00,,,0.00,WUHU216HW,2013-10-24 13:18:00,
2013-10-24 09:23:00,35.6,31.7,30.26,NNW,338,0.0,0.0,86,0.00,,,0.00,WUHU216HW,2013-10-24 13:23:00,
2013-10-24 09:28:00,36.1,32.2,30.27,NNW,338,0.0,0.0,86,0.00,,,0.00,WUHU216HW,2013-10-24 13:28:00,
2013-10-24 09:33:00,36.3,32.1,30.26,NNW,338,0.0,0.0,85,0.00,,,0.00,WUHU216HW,2013-10-24 13:33:00,
2013-10-24 09:38:00,36.6,32.5,30.26,NNW,338,0.0,0.0,85,0.00,,,0.00,WUHU216HW,2013-10-24 13:38:00,
2013-10-24 09:43:00,37.2,32.7,30.27,NNW,338,0.0,0.0,84,0.00,,,0.00,WUHU216HW,2013-10-24 13:43:00,
2013-10-24 09:48:00,37.5,33.1,30.27,NNW,338,0.0,0.0,84,0.00,,,0.00,WUHU216HW,2013-10-24 13:48:00,
2013-10-24 09:53:00,38.1,33.6,30.27,NNW,338,0.0,0.0,84,0.00,,,0.00,WUHU216HW,2013-10-24 13:53:00,
2013-10-24 09:58:00,38.4,33.7,30.28,NNW,338,0.0,0.0,83,0.00,,,0.00,WUHU216HW,2013-10-24 13:58:00,
2013-10-24 10:03:00,39.2,34.3,30.28,NNW,338,0.0,0.0,83,0.00,,,0.00,WUHU216HW,2013-10-24 14:03:00,
2013-10-24 10:08:00,39.3,34.3,30.28,NNW,338,0.0,0.0,82,0.00,,,0.00,WUHU216HW,2013-10-24 14:08:00,
2013-10-24 10:13:00,39.7,34.3,30.28,NNW,338,0.0,0.0,81,0.00,,,0.00,WUHU216HW,2013-10-24 14:13:00,
2013-10-24 10:18:00,39.9,34.1,30.28,NNW,338,0.0,0.0,80,0.00,,,0.00,WUHU216HW,2013-10-24 14:18:00,
2013-10-24 10:23:00,40.2,34.5,30.28,NNW,338,0.0,0.0,80,0.00,,,0.00,WUHU216HW,2013-10-24 14:23:00,
2013-10-24 10:28:00,40.8,34.7,30.28,NNW,338,0.0,0.0,79,0.00,,,0.00,WUHU216HW,2013-10-24 14:28:00,
2013-10-24 10:33:00,41.5,35.1,30.28,NNW,338,0.0,0.0,78,0.00,,,0.00,WUHU216HW,2013-10-24 14:33:00,
2013-10-24 10:38:00,41.7,34.9,30.27,NNW,338,0.0,0.0,77,0.00,,,0.00,WUHU216HW,2013-10-24 14:38:00,
2013-10-24 10:43:00,42.2,35.5,30.27,NNW,338,0.0,0.0,77,0.00,,,0.00,WUHU216HW,2013-10-24 14:43:00,
2013-10-24 10:48:00,42.9,35.9,30.27,NNW,338,0.0,0.0,76,0.00,,,0.00,WUHU216HW,2013-10-24 14:48:00,
2013-10-24 10:53:00,43.5,36.1,30.27,NNW,338,0.0,0.0,75,0.00,,,0.00,WUHU216HW,2013-10-24 14:53:00,
2013-10-24 10:58:00,44.0,36.6,30.27,NNW,338,0.0,0.0,75,0.00,,,0.00,WUHU216HW,2013-10-24 14:58:00,
2013-10-24 11:03:00,44.4,36.6,30.27,NNW,338,0.0,0.0,74,0.00,,,0.00,WUHU216HW,2013-10-24 15:03:00,
2013-10-24 11:08:00,44.9,36.1,30.27,NNW,338,0.0,0.0,71,0.00,,,0.00,WUHU216HW,2013-10-24 15:08:00,
2013-10-24 11:13:00,45.5,36.6,30.27,NNW,338,0.0,0.0,71,0.00,,,0.00,WUHU216HW,2013-10-24 15:13:00,
2013-10-24 11:18:00,45.8,35.8,30.27,NNW,338,0.0,0.0,68,0.00,,,0.00,WUHU216HW,2013-10-24 15:18:00,
2013-10-24 11:23:00,46.0,36.0,30.27,NNW,338,0.0,0.0,68,0.00,,,0.00,WUHU216HW,2013-10-24 15:23:00,
2013-10-24 11:28:00,46.0,36.0,30.27,NNW,338,0.0,0.0,68,0.00,,,0.00,WUHU216HW,2013-10-24 15:28:00,
2013-10-24 11:33:00,46.0,36.0,30.26,NNW,338,0.0,0.0,68,0.00,,,0.00,WUHU216HW,2013-10-24 15:33:00,
2013-10-24 11:38:00,46.5,36.1,30.26,NNW,338,0.0,0.0,67,0.00,,,0.00,WUHU216HW,2013-10-24 15:38:00,
2013-10-24 11:43:00,46.9,36.1,30.26,SSW,203,0.0,0.0,66,0.00,,,0.00,WUHU216HW,2013-10-24 15:43:00,
2013-10-24 11:48:00,47.4,36.2,30.27,SSW,203,0.0,0.0,65,0.00,,,0.00,WUHU216HW,2013-10-24 15:48:00,
2013-10-24 11:53:00,48.3,36.7,30.27,SSW,203,0.0,0.0,64,0.00,,,0.00,WUHU216HW,2013-10-24 15:53:00,
2013-10-24 11:58:00,48.5,36.1,30.26,SSW,203,0.0,0.0,62,0.00,,,0.00,WUHU216HW,2013-10-24 15:58:00,
2013-10-24 12:03:00,48.3,35.9,30.26,SSW,203,0.0,0.0,62,0.00,,,0.00,WUHU216HW,2013-10-24 16:03:00,
2013-10-24 12:08:00,48.2,35.4,30.26,SSW,203,0.0,0.0,61,0.00,,,0.00,WUHU216HW,2013-10-24 16:08:00,
2013-10-24 12:13:00,48.0,35.2,30.27,SSW,203,0.0,0.0,61,0.00,,,0.00,WUHU216HW,2013-10-24 16:13:00,
2013-10-24 12:18:00,48.9,36.4,30.27,SSW,203,0.0,0.0,62,0.00,,,0.00,WUHU216HW,2013-10-24 16:18:00,
2013-10-24 12:23:00,49.4,36.5,30.26,SSW,203,0.0,0.0,61,0.00,,,0.00,WUHU216HW,2013-10-24 16:23:00,
2013-10-24 12:28:00,50.1,37.2,30.26,SSW,203,0.0,0.0,61,0.00,,,0.00,WUHU216HW,2013-10-24 16:28:00,
2013-10-24 12:33:00,51.2,37.8,30.26,SSW,203,0.0,0.0,60,0.00,,,0.00,WUHU216HW,2013-10-24 16:33:00,
2013-10-24 12:38:00,51.9,38.0,30.26,SSW,203,0.0,0.0,59,0.00,,,0.00,WUHU216HW,2013-10-24 16:38:00,
2013-10-24 12:43:00,52.5,38.1,30.26,WNW,293,0.0,0.0,58,0.00,,,0.00,WUHU216HW,2013-10-24 16:43:00,
2013-10-24 12:48:00,53.2,37.8,30.26,WSW,248,0.0,0.0,56,0.00,,,0.00,WUHU216HW,2013-10-24 16:48:00,
2013-10-24 12:53:00,53.2,37.4,30.26,NW,315,0.0,0.0,55,0.00,,,0.00,WUHU216HW,2013-10-24 16:53:00,
2013-10-24 12:58:00,53.2,36.4,30.26,NNW,338,0.0,0.0,53,0.00,,,0.00,WUHU216HW,2013-10-24 16:58:00,
2013-10-24 13:03:00,52.5,36.2,30.26,NNW,338,0.0,0.0,54,0.00,,,0.00,WUHU216HW,2013-10-24 17:03:00,
2013-10-24 13:08:00,52.5,36.2,30.25,North,0,0.0,0.0,54,0.00,,,0.00,WUHU216HW,2013-10-24 17:08:00,
2013-10-24 13:13:00,52.8,36.6,30.25,NNW,338,0.0,0.0,54,0.00,,,0.00,WUHU216HW,2013-10-24 17:13:00,
2013-10-24 13:18:00,52.5,36.2,30.24,NW,315,0.0,0.0,54,0.00,,,0.00,WUHU216HW,2013-10-24 17:18:00,
2013-10-24 13:23:00,52.1,35.9,30.24,NW,315,0.0,0.0,54,0.00,,,0.00,WUHU216HW,2013-10-24 17:23:00,
2013-10-24 13:28:00,51.8,36.0,30.24,NW,315,0.0,0.0,55,0.00,,,0.00,WUHU216HW,2013-10-24 17:28:00,
2013-10-24 13:33:00,51.6,35.4,30.24,WSW,248,0.0,0.0,54,0.00,,,0.00,WUHU216HW,2013-10-24 17:33:00,
2013-10-24 13:38:00,51.6,35.8,30.23,NNW,338,0.0,0.0,55,0.00,,,0.00,WUHU216HW,2013-10-24 17:38:00,
2013-10-24 13:43:00,52.3,36.5,30.23,NNW,338,0.0,0.0,55,0.00,,,0.00,WUHU216HW,2013-10-24 17:43:00,
2013-10-24 13:48:00,53.2,37.4,30.23,NNW,338,0.0,0.0,55,0.00,,,0.00,WUHU216HW,2013-10-24 17:48:00,
2013-10-24 13:53:00,53.4,36.6,30.23,West,270,0.0,0.0,53,0.00,,,0.00,WUHU216HW,2013-10-24 17:53:00,
2013-10-24 13:58:00,53.4,36.6,30.24,NW,315,0.0,0.0,53,0.00,,,0.00,WUHU216HW,2013-10-24 17:58:00,
2013-10-24 14:03:00,52.8,36.1,30.23,WNW,293,0.0,0.0,53,0.00,,,0.00,WUHU216HW,2013-10-24 18:03:00,
2013-10-24 14:08:00,52.5,35.3,30.23,North,0,0.0,0.0,52,0.00,,,0.00,WUHU216HW,2013-10-24 18:08:00,
2013-10-24 14:13:00,52.3,35.6,30.23,NNW,338,0.0,0.0,53,0.00,,,0.00,WUHU216HW,2013-10-24 18:13:00,
2013-10-24 14:18:00,52.3,35.1,30.23,NNW,338,0.0,0.0,52,0.00,,,0.00,WUHU216HW,2013-10-24 18:18:00,
2013-10-24 14:23:00,52.3,36.1,30.23,NNW,338,0.0,0.0,54,0.00,,,0.00,WUHU216HW,2013-10-24 18:23:00,
2013-10-24 14:28:00,52.1,35.4,30.23,WNW,293,0.0,0.0,53,0.00,,,0.00,WUHU216HW,2013-10-24 18:28:00,
2013-10-24 14:33:00,52.1,35.4,30.23,WNW,293,0.0,0.0,53,0.00,,,0.00,WUHU216HW,2013-10-24 18:33:00,
2013-10-24 14:38:00,52.1,35.4,30.23,WNW,293,0.0,0.0,53,0.00,,,0.00,WUHU216HW,2013-10-24 18:38:00,
2013-10-24 14:43:00,52.5,36.2,30.23,WNW,293,0.0,0.0,54,0.00,,,0.00,WUHU216HW,2013-10-24 18:43:00,
2013-10-24 14:48:00,52.8,36.6,30.22,WNW,293,0.0,0.0,54,0.00,,,0.00,WUHU216HW,2013-10-24 18:48:00,
2013-10-24 14:53:00,52.8,36.0,30.23,NW,315,0.0,0.0,52,0.00,,,0.00,WUHU216HW,2013-10-24 18:53:00,
2013-10-24 14:58:00,52.8,35.6,30.23,North,0,0.0,0.0,52,0.00,,,0.00,WUHU216HW,2013-10-24 18:58:00,
2013-10-24 15:03:00,52.7,35.9,30.22,NNW,338,0.0,0.0,53,0.00,,,0.00,WUHU216HW,2013-10-24 19:03:00,
2013-10-24 15:08:00,52.8,36.6,30.22,NNW,338,0.0,0.0,54,0.00,,,0.00,WUHU216HW,2013-10-24 19:08:00,
2013-10-24 15:13:00,53.2,36.4,30.22,NW,315,0.0,0.0,53,0.00,,,0.00,WUHU216HW,2013-10-24 19:13:00,
2013-10-24 15:18:00,53.4,36.6,30.22,NW,315,0.0,0.0,53,0.00,,,0.00,WUHU216HW,2013-10-24 19:18:00,
2013-10-24 15:23:00,53.7,36.9,30.23,NNW,338,0.0,0.0,53,0.00,,,0.00,WUHU216HW,2013-10-24 19:23:00,
2013-10-24 15:28:00,53.7,36.5,30.23,NNW,338,0.0,0.0,52,0.00,,,0.00,WUHU216HW,2013-10-24 19:28:00,
2013-10-24 15:33:00,53.4,35.7,30.22,NW,315,0.0,4.4,51,0.00,,,0.00,WUHU216HW,2013-10-24 19:33:00,
2013-10-24 15:38:00,53.0,36.3,30.22,North,0,0.0,4.4,53,0.00,,,0.00,WUHU216HW,2013-10-24 19:38:00,
2013-10-24 15:43:00,53.2,36.4,30.22,NW,315,0.0,0.0,53,0.00,,,0.00,WUHU216HW,2013-10-24 19:43:00,
2013-10-24 15:48:00,52.7,35.9,30.22,NNW,338,0.0,0.0,53,0.00,,,0.00,WUHU216HW,2013-10-24 19:48:00,
2013-10-24 15:53:00,52.5,35.8,30.22,North,0,0.0,0.0,53,0.00,,,0.00,WUHU216HW,2013-10-24 19:53:00,
2013-10-24 15:58:00,51.9,35.7,30.22,NNW,338,0.0,0.0,54,0.00,,,0.00,WUHU216HW,2013-10-24 19:58:00,
2013-10-24 16:03:00,51.8,36.0,30.22,WNW,293,0.0,0.0,55,0.00,,,0.00,WUHU216HW,2013-10-24 20:03:00,
2013-10-24 16:08:00,51.8,36.0,30.22,WNW,293,0.0,0.0,55,0.00,,,0.00,WUHU216HW,2013-10-24 20:08:00,
2013-10-24 16:13:00,51.6,35.8,30.22,WNW,293,0.0,0.0,55,0.00,,,0.00,WUHU216HW,2013-10-24 20:13:00,
2013-10-24 16:18:00,51.9,36.6,30.22,WNW,293,0.0,0.0,56,0.00,,,0.00,WUHU216HW,2013-10-24 20:18:00,
2013-10-24 16:23:00,52.5,36.7,30.21,NW,315,0.0,0.0,55,0.00,,,0.00,WUHU216HW,2013-10-24 20:23:00,
2013-10-24 16:28:00,52.5,36.7,30.22,WNW,293,0.0,0.0,55,0.00,,,0.00,WUHU216HW,2013-10-24 20:28:00,
2013-10-24 16:33:00,52.3,36.5,30.22,WNW,293,0.0,0.0,55,0.00,,,0.00,WUHU216HW,2013-10-24 20:33:00,
2013-10-24 16:38:00,52.1,36.3,30.22,NNW,338,0.0,0.0,55,0.00,,,0.00,WUHU216HW,2013-10-24 20:38:00,
2013-10-24 16:43:00,51.6,35.8,30.22,WNW,293,0.0,0.0,55,0.00,,,0.00,WUHU216HW,2013-10-24 20:43:00,
2013-10-24 16:48:00,51.6,35.8,30.22,WNW,293,0.0,0.0,55,0.00,,,0.00,WUHU216HW,2013-10-24 20:48:00,
2013-10-24 16:53:00,51.0,35.7,30.22,West,270,0.0,0.0,56,0.00,,,0.00,WUHU216HW,2013-10-24 20:53:00,
2013-10-24 16:58:00,51.0,35.8,30.22,NW,315,0.0,0.0,56,0.00,,,0.00,WUHU216HW,2013-10-24 20:58:00,
2013-10-24 17:03:00,50.7,35.5,30.22,WNW,293,0.0,5.3,56,0.00,,,0.00,WUHU216HW,2013-10-24 21:03:00,
2013-10-24 17:08:00,50.3,35.6,30.22,NW,315,0.0,5.3,57,0.00,,,0.00,WUHU216HW,2013-10-24 21:08:00,
2013-10-24 17:13:00,50.1,35.4,30.22,NNW,338,0.0,0.0,57,0.00,,,0.00,WUHU216HW,2013-10-24 21:13:00,
2013-10-24 17:18:00,49.8,35.1,30.22,NNW,338,0.0,0.0,57,0.00,,,0.00,WUHU216HW,2013-10-24 21:18:00,
2013-10-24 17:23:00,49.6,35.4,30.22,NNW,338,0.0,0.0,58,0.00,,,0.00,WUHU216HW,2013-10-24 21:23:00,
2013-10-24 17:28:00,49.6,35.4,30.22,WNW,293,0.0,0.0,58,0.00,,,0.00,WUHU216HW,2013-10-24 21:28:00,
2013-10-24 17:33:00,49.2,35.5,30.22,WNW,293,0.0,0.0,59,0.00,,,0.00,WUHU216HW,2013-10-24 21:33:00,
2013-10-24 17:38:00,49.2,35.1,30.23,NW,315,0.0,0.0,58,0.00,,,0.00,WUHU216HW,2013-10-24 21:38:00,
2013-10-24 17:43:00,48.9,35.2,30.22,NW,315,0.0,0.0,59,0.00,,,0.00,WUHU216HW,2013-10-24 21:43:00,
2013-10-24 17:48:00,48.7,35.0,30.23,NW,315,0.0,0.0,59,0.00,,,0.00,WUHU216HW,2013-10-24 21:48:00,
2013-10-24 17:53:00,48.3,35.2,30.23,NW,315,0.0,0.0,60,0.00,,,0.00,WUHU216HW,2013-10-24 21:53:00,
2013-10-24 17:58:00,48.0,34.8,30.23,NW,315,3.3,3.3,60,0.00,,,0.00,WUHU216HW,2013-10-24 21:58:00,
2013-10-24 18:03:00,48.0,35.2,30.23,NNW,338,0.0,3.3,61,0.00,,,0.00,WUHU216HW,2013-10-24 22:03:00,
2013-10-24 18:08:00,47.6,34.8,30.23,NNW,338,0.0,3.3,61,0.00,,,0.00,WUHU216HW,2013-10-24 22:08:00,
2013-10-24 18:13:00,47.4,35.0,30.23,WNW,293,0.0,0.0,62,0.00,,,0.00,WUHU216HW,2013-10-24 22:13:00,
2013-10-24 18:18:00,47.1,34.7,30.23,WNW,293,0.0,0.0,62,0.00,,,0.00,WUHU216HW,2013-10-24 22:18:00,
2013-10-24 18:23:00,46.9,34.5,30.24,WNW,293,0.0,0.0,62,0.00,,,0.00,WUHU216HW,2013-10-24 22:23:00,
2013-10-24 18:29:00,46.5,34.6,30.24,NW,315,0.0,0.0,63,0.00,,,0.00,WUHU216HW,2013-10-24 22:29:00,
2013-10-24 18:34:00,46.4,34.4,30.24,WNW,293,0.0,0.0,63,0.00,,,0.00,WUHU216HW,2013-10-24 22:34:00,
2013-10-24 18:39:00,46.2,34.6,30.24,NW,315,0.0,0.0,64,0.00,,,0.00,WUHU216HW,2013-10-24 22:39:00,
2013-10-24 18:44:00,46.0,34.5,30.25,NW,315,0.0,0.0,64,0.00,,,0.00,WUHU216HW,2013-10-24 22:44:00,
2013-10-24 18:49:00,45.5,34.3,30.24,WNW,293,0.0,0.0,65,0.00,,,0.00,WUHU216HW,2013-10-24 22:49:00,
2013-10-24 18:54:00,45.1,34.0,30.24,WNW,293,0.0,0.0,65,0.00,,,0.00,WUHU216HW,2013-10-24 22:54:00,
2013-10-24 18:59:00,44.9,33.8,30.24,WNW,293,0.0,0.0,65,0.00,,,0.00,WUHU216HW,2013-10-24 22:59:00,
2013-10-24 19:04:00,44.9,34.2,30.25,WNW,293,0.0,0.0,66,0.00,,,0.00,WUHU216HW,2013-10-24 23:04:00,
2013-10-24 19:09:00,44.7,34.0,30.25,WNW,293,0.0,0.0,66,0.00,,,0.00,WUHU216HW,2013-10-24 23:09:00,
2013-10-24 19:14:00,44.4,34.1,30.25,WNW,293,0.0,0.0,67,0.00,,,0.00,WUHU216HW,2013-10-24 23:14:00,
2013-10-24 19:19:00,44.2,33.9,30.26,WNW,293,0.0,0.0,67,0.00,,,0.00,WUHU216HW,2013-10-24 23:19:00,
2013-10-24 19:24:00,43.8,33.6,30.26,WNW,293,0.0,0.0,67,0.00,,,0.00,WUHU216HW,2013-10-24 23:24:00,
2013-10-24 19:29:00,43.5,33.6,30.26,WNW,293,0.0,0.0,68,0.00,,,0.00,WUHU216HW,2013-10-24 23:29:00,
2013-10-24 19:34:00,43.5,33.6,30.26,WNW,293,0.0,0.0,68,0.00,,,0.00,WUHU216HW,2013-10-24 23:34:00,
2013-10-24 19:39:00,43.1,33.8,30.26,North,0,0.0,0.0,69,0.00,,,0.00,WUHU216HW,2013-10-24 23:39:00,
2013-10-24 19:44:00,42.9,33.5,30.26,WNW,293,0.0,0.0,69,0.00,,,0.00,WUHU216HW,2013-10-24 23:44:00,
2013-10-24 19:49:00,42.6,33.2,30.26,WNW,293,0.0,0.0,69,0.00,,,0.00,WUHU216HW,2013-10-24 23:49:00,
2013-10-24 19:54:00,42.6,33.6,30.26,WNW,293,0.0,0.0,70,0.00,,,0.00,WUHU216HW,2013-10-24 23:54:00,
2013-10-24 19:59:00,42.6,33.9,30.27,WNW,293,0.0,0.0,71,0.00,,,0.00,WUHU216HW,2013-10-24 23:59:00,
2013-10-24 20:04:00,42.6,33.9,30.26,WNW,293,0.0,0.0,71,0.00,,,0.00,WUHU216HW,2013-10-25 00:04:00,
2013-10-24 20:09:00,42.9,34.6,30.26,WNW,293,0.0,0.0,72,0.00,,,0.00,WUHU216HW,2013-10-25 00:09:00,
2013-10-24 20:14:00,42.9,34.6,30.26,WNW,293,0.0,0.0,72,0.00,,,0.00,WUHU216HW,2013-10-25 00:14:00,
2013-10-24 20:19:00,42.9,34.6,30.27,WNW,293,0.0,0.0,72,0.00,,,0.00,WUHU216HW,2013-10-25 00:19:00,
2013-10-24 20:24:00,42.8,34.4,30.27,WNW,293,0.0,0.0,72,0.00,,,0.00,WUHU216HW,2013-10-25 00:24:00,
2013-10-24 20:29:00,42.6,34.2,30.27,WNW,293,0.0,0.0,72,0.00,,,0.00,WUHU216HW,2013-10-25 00:29:00,
2013-10-24 20:34:00,42.6,34.2,30.27,WNW,293,0.0,0.0,72,0.00,,,0.00,WUHU216HW,2013-10-25 00:34:00,
2013-10-24 20:39:00,42.0,33.7,30.27,WNW,293,0.0,0.0,72,0.00,,,0.00,WUHU216HW,2013-10-25 00:39:00,
2013-10-24 20:44:00,42.0,34.0,30.27,WNW,293,0.0,0.0,73,0.00,,,0.00,WUHU216HW,2013-10-25 00:44:00,
2013-10-24 20:49:00,42.0,34.0,30.27,WNW,293,0.0,0.0,73,0.00,,,0.00,WUHU216HW,2013-10-25 00:49:00,
2013-10-24 20:54:00,42.0,34.3,30.27,WNW,293,0.0,0.0,74,0.00,,,0.00,WUHU216HW,2013-10-25 00:54:00,
2013-10-24 20:59:00,42.2,34.5,30.28,WNW,293,0.0,0.0,74,0.00,,,0.00,WUHU216HW,2013-10-25 00:59:00,
2013-10-24 21:04:00,42.4,35.0,30.27,WNW,293,0.0,0.0,75,0.00,,,0.00,WUHU216HW,2013-10-25 01:04:00,
2013-10-24 21:09:00,42.0,34.7,30.28,WNW,293,0.0,0.0,75,0.00,,,0.00,WUHU216HW,2013-10-25 01:09:00,
2013-10-24 21:14:00,41.9,34.5,30.28,WNW,293,0.0,0.0,75,0.00,,,0.00,WUHU216HW,2013-10-25 01:14:00,
2013-10-24 21:19:00,41.5,34.1,30.27,WNW,293,0.0,0.0,75,0.00,,,0.00,WUHU216HW,2013-10-25 01:19:00,
2013-10-24 21:24:00,41.1,34.1,30.28,WNW,293,0.0,0.0,76,0.00,,,0.00,WUHU216HW,2013-10-25 01:24:00,
2013-10-24 21:29:00,41.0,33.9,30.27,WNW,293,0.0,0.0,76,0.00,,,0.00,WUHU216HW,2013-10-25 01:29:00,
2013-10-24 21:34:00,40.8,33.7,30.28,WNW,293,0.0,0.0,76,0.00,,,0.00,WUHU216HW,2013-10-25 01:34:00,
2013-10-24 21:39:00,40.8,34.0,30.28,WNW,293,0.0,0.0,77,0.00,,,0.00,WUHU216HW,2013-10-25 01:39:00,
2013-10-24 21:44:00,40.8,34.0,30.28,WNW,293,0.0,0.0,77,0.00,,,0.00,WUHU216HW,2013-10-25 01:44:00,
2013-10-24 21:49:00,40.8,34.0,30.28,WNW,293,0.0,0.0,77,0.00,,,0.00,WUHU216HW,2013-10-25 01:49:00,
2013-10-24 21:54:00,41.1,34.7,30.28,WNW,293,0.0,0.0,78,0.00,,,0.00,WUHU216HW,2013-10-25 01:54:00,
2013-10-24 21:59:00,41.1,34.7,30.28,WNW,293,0.0,0.0,78,0.00,,,0.00,WUHU216HW,2013-10-25 01:59:00,
2013-10-24 22:04:00,41.1,35.0,30.29,WNW,293,0.0,0.0,79,0.00,,,0.00,WUHU216HW,2013-10-25 02:04:00,
2013-10-24 22:09:00,41.5,35.4,30.29,WNW,293,0.0,0.0,79,0.00,,,0.00,WUHU216HW,2013-10-25 02:09:00,
2013-10-24 22:14:00,41.5,35.4,30.29,WNW,293,0.0,0.0,79,0.00,,,0.00,WUHU216HW,2013-10-25 02:14:00,
2013-10-24 22:19:00,41.5,35.4,30.29,WNW,293,0.0,0.0,79,0.00,,,0.00,WUHU216HW,2013-10-25 02:19:00,
2013-10-24 22:24:00,41.5,35.4,30.29,WNW,293,0.0,0.0,79,0.00,,,0.00,WUHU216HW,2013-10-25 02:24:00,
2013-10-24 22:29:00,41.5,35.4,30.29,WNW,293,0.0,0.0,79,0.00,,,0.00,WUHU216HW,2013-10-25 02:29:00,
2013-10-24 22:34:00,41.5,35.4,30.29,WNW,293,0.0,0.0,79,0.00,,,0.00,WUHU216HW,2013-10-25 02:34:00,
2013-10-24 22:39:00,41.5,35.4,30.29,WNW,293,0.0,0.0,79,0.00,,,0.00,WUHU216HW,2013-10-25 02:39:00,
2013-10-24 22:44:00,41.7,35.6,30.29,WNW,293,0.0,0.0,79,0.00,,,0.00,WUHU216HW,2013-10-25 02:44:00,
2013-10-24 22:49:00,41.5,35.4,30.29,WNW,293,0.0,0.0,79,0.00,,,0.00,WUHU216HW,2013-10-25 02:49:00,
2013-10-24 22:54:00,41.7,35.6,30.29,WNW,293,0.0,0.0,79,0.00,,,0.00,WUHU216HW,2013-10-25 02:54:00,
2013-10-24 22:59:00,41.7,35.6,30.29,WNW,293,0.0,0.0,79,0.00,,,0.00,WUHU216HW,2013-10-25 02:59:00,
2013-10-24 23:04:00,41.7,35.6,30.29,WNW,293,0.0,0.0,79,0.00,,,0.00,WUHU216HW,2013-10-25 03:04:00,
2013-10-24 23:09:00,41.7,35.3,30.29,West,270,0.0,0.0,78,0.00,,,0.00,WUHU216HW,2013-10-25 03:09:00,
2013-10-24 23:14:00,41.7,35.3,30.29,West,270,0.0,0.0,78,0.00,,,0.00,WUHU216HW,2013-10-25 03:14:00,
2013-10-24 23:19:00,41.5,35.1,30.29,West,270,0.0,0.0,78,0.00,,,0.00,WUHU216HW,2013-10-25 03:19:00,
2013-10-24 23:24:00,41.1,34.7,30.29,ENE,68,0.0,0.0,78,0.00,,,0.00,WUHU216HW,2013-10-25 03:24:00,
2013-10-24 23:29:00,41.1,34.7,30.29,NW,315,0.0,0.0,78,0.00,,,0.00,WUHU216HW,2013-10-25 03:29:00,
2013-10-24 23:34:00,41.1,34.7,30.29,WNW,293,0.0,0.0,78,0.00,,,0.00,WUHU216HW,2013-10-25 03:34:00,
2013-10-24 23:39:00,41.3,34.9,30.30,North,0,0.0,0.0,78,0.00,,,0.00,WUHU216HW,2013-10-25 03:39:00,
2013-10-24 23:44:00,41.3,34.6,30.29,WNW,293,0.0,0.0,77,0.00,,,0.00,WUHU216HW,2013-10-25 03:44:00,
2013-10-24 23:49:00,41.1,34.4,30.30,WNW,293,0.0,0.0,77,0.00,,,0.00,WUHU216HW,2013-10-25 03:49:00,
2013-10-24 23:54:00,40.8,34.4,30.30,NNW,338,0.0,0.0,78,0.00,,,0.00,WUHU216HW,2013-10-25 03:54:00,
2013-10-24 23:59:00,40.2,34.5,30.31,NW,315,0.0,0.0,80,0.00,,,0.00,WUHU216HW,2013-10-25 03:59:00,